YAOGAN 29 DEB, 42673

Orbit data source: Space-Track

YAOGAN 29 DEB, 42673 is space debris in SSO originally from a launch on Thu, 26 Nov 2015 UTC launched from the Taiyaun Space Center, China (TSC). Debris objects in space refer to the collection of defunct objects orbiting the Earth. Examples of debris include non-operational satellites, rocket bodies, and fragments generated from explosions, collisions, or faulty payload assembly.

Loading next visibility...
Identifier
42673, 2015-069F
Orbit
SSO
Country
Flag of CNCN / PRC
Related business
Manufacturer
Unknown
Mission
Spacecraft
Bus & Motor
Unknown
Mass
Unknown
Launch date (UTC)
2015-11-26 (10 years ago)
Launch vehicle
Unknown
Launch site
Taiyaun Space Center, China (TSC)
Object type
Payload
Rocket body
Debris
Shape & HBR
Unknown
Radar Cross Section
Small (<0.1 m²)

Expand to show TLE details & history
Last TLE update: 18 hours ago

TLE from 18 hours ago
0 YAOGAN 29 DEB
1 42673U 15069F   25258.81847168  .00001015  00000-0  11030-3 0  9993
2 42673  97.9119 289.6767 0003351 169.2379 190.8911 14.90322659531104
Epoch: 2025-09-15T19:38Z
TLE epoch observation values (Epoch: 2025-09-15T19:38:35.953Z)
Latitude
0.00001°
Longitude
0.00923°
Altitude
602.26 km
Speed
7.557 km/s
True Right ascension
19h 18m 42s
True Declination
0° 00' 00"
Sunlit
Object was in full shadow at epoch
Visualization orbit readout
Latitude
Unknown
Longitude
Unknown
Altitude
Unknown
Speed
Unknown
Apparent Right ascension
Unknown
Apparent Declination
Unknown
Sunlit
N/A
Visualization observer readout
Local Sidereal Time
06:33:44
Azimuth
Unknown
Elevation
Unknown
Doppler factor
Unknown
Orbital elements
Apogee altitude
596.293 km
Perigee altitude
591.62 km
Semi-major axis
6,972.093 km
Eccentricity
0.00034
Inclination
97.9119°
RAAN
289.6767°
Arg. of periapsis
169.2379°
True anomaly
190.88385°
Mean anomaly
190.8911°
Eccentric anomaly
190.88747°
Mean motion
3.72819 °/min
Orbital period
96.56 mins
BSTAR
0.0001103
Loading maneuver chart data...
Computing Atmospheric mass density...
Loading historical data...
Loading historical data...
Loading historical data...
Loading historical data...
Loading historical data...
Loading historical data...
Loading historical data...
Other satellites on launch #69 in the year 2015 (2015-11-26 UTC)

Documentation

Showing up to 5 results
|